Hawthorne, CA

6:25 PM PDT on June 28, 2017 (GMT -0700)
Northrop-Hawthorne Municipal

Weather History for KHHR - January, 2014

Change the Weather History Date:

Tuesday, January 21, 2014

  Actual Average Record
Temperature  
Mean Temperature 63 °F -  
Max Temperature 75 °F 63 °F 83 °F (1976)
Min Temperature 51 °F 48 °F 37 °F (1966)
Degree Days  
Heating Degree Days 2    
Growing Degree Days 13 (Base 50)    
Moisture  
Dew Point 39 °F    
Average Humidity 49    
Maximum Humidity 80    
Minimum Humidity 10    
Precipitation  
Precipitation 0.00 in - - ()
Sea Level Pressure  
Sea Level Pressure 30.10 in    
Wind  
Wind Speed 1 mph (West)    
Max Wind Speed 6 mph    
Max Gust Speed -    
Visibility 10 miles    
Events      
Averages and records for this station are not official NWS values.
T = Trace of Precipitation, MM = Missing Value Source: NWS Daily Summary

Daily Weather History Graph

Daily Weather History Graph

Search for Another Location

Airport or City:

Trip Planner

Search our weather history database for the weather conditions in past years. The results will help you decide how hot, cold, wet, or windy it might be!

Date:

Astronomy

Jan. 21, 2014 Rise Set
Actual Time 6:56 AM PST 5:13 PM PST
Civil Twilight 6:29 AM PST 5:40 PM PST
Nautical Twilight 5:59 AM PST 6:10 PM PST
Astronomical Twilight 5:29 AM PST 6:40 PM PST
Moon 10:33 PM PST (1/21) 9:44 AM PST (1/21)
Length of Visible Light 11h 10m
Length of Day
10h 16m
Waning Gibbous, 73% of the Moon is Illuminated
Jan 21
Waning Gibbous
Jan 23
Last Quarter
Jan 30
New
Feb 6
First Quarter
Feb 14
Full

Hourly Weather History & Observations

Time (PST) Temp. Dew Point Humidity Pressure Visibility Wind Dir Wind Speed Gust Speed Precip Events Conditions
12:53 AM 53.1 °F 46.9 °F 80% 30.14 in 9.0 mi Calm Calm - N/A   Clear
1:53 AM 53.1 °F 46.0 °F 77% 30.15 in 8.0 mi Calm Calm - N/A   Clear
2:53 AM 52.0 °F 46.0 °F 80% 30.15 in 8.0 mi Calm Calm - N/A   Clear
3:53 AM 51.1 °F 42.1 °F 71% 30.14 in 10.0 mi Calm Calm - N/A   Clear
4:53 AM 52.0 °F 41.0 °F 66% 30.13 in 10.0 mi Calm Calm - N/A   Clear
5:53 AM 52.0 °F 37.0 °F 57% 30.14 in 10.0 mi Calm Calm - N/A   Clear
6:53 AM 53.1 °F 39.0 °F 59% 30.14 in 10.0 mi Calm Calm - N/A   Clear
7:53 AM 54.0 °F 37.9 °F 55% 30.14 in 10.0 mi Calm Calm - N/A   Clear
8:53 AM 66.0 °F 25.0 °F 21% 30.16 in 10.0 mi Calm Calm - N/A   Clear
9:53 AM 72.0 °F 19.0 °F 13% 30.15 in 10.0 mi Calm Calm - N/A   Clear
10:53 AM 73.0 °F 19.0 °F 13% 30.14 in 10.0 mi Calm Calm - N/A   Clear
11:53 AM 75.0 °F 15.1 °F 10% 30.11 in 10.0 mi Calm Calm - N/A   Clear
12:53 PM 72.0 °F 39.9 °F 31% 30.08 in 10.0 mi WSW 5.8 mph - N/A   Clear
1:53 PM 71.1 °F 37.9 °F 30% 30.06 in 10.0 mi West 3.5 mph - N/A   Clear
2:53 PM 71.1 °F 30.9 °F 23% 30.06 in 10.0 mi WNW 3.5 mph - N/A   Clear
3:53 PM 70.0 °F 28.9 °F 22% 30.06 in 10.0 mi WNW 5.8 mph - N/A   Clear
4:53 PM 68.0 °F 35.1 °F 30% 30.08 in 10.0 mi West 3.5 mph - N/A   Clear
5:53 PM 64.0 °F 50.0 °F 60% 30.07 in 10.0 mi WNW 4.6 mph - N/A   Clear
6:53 PM 63.0 °F 50.0 °F 63% 30.07 in 10.0 mi Calm Calm - N/A   Clear
7:53 PM 62.1 °F 48.0 °F 60% 30.07 in 10.0 mi West 3.5 mph - N/A   Clear
8:53 PM 62.1 °F 48.9 °F 62% 30.06 in 10.0 mi Calm Calm - N/A   Clear
9:53 PM 61.0 °F 48.0 °F 62% 30.07 in 10.0 mi Calm Calm - N/A   Clear
10:53 PM 60.1 °F 48.0 °F 64% 30.07 in 10.0 mi Calm Calm - N/A   Clear
11:53 PM 59.0 °F 48.9 °F 69% 30.06 in 10.0 mi Calm Calm - N/A   Clear